Regional Weather Roundup
Issued by NWS

Home | Current Version | Previous Version | Text Only | Print | Product List | Glossary On
Versions: 1 2 3 4 5 6 7 8 9 10 11 12 13 14 15 16 17 18 19 20 21 22 23 24 25 26 27 28 29 30 31 32 33 34 35 36 37 38 39 40 41 42 43 44 45 46 47 48 49 50
000
ASCA44 KEWX 310120
RWRMX

LATIN AMERICA AND CARIBBEAN REGIONAL WEATHER ROUNDUP
NATIONAL WEATHER SERVICE AUSTIN/SAN ANTONIO TX
800 PM CDT WED JUL 30 2014

NOTE: "FAIR" INDICATED FEW OR NO CLOUDS BELOW 12,000 FEET WITH NO
SIGNIFICANT WEATHER AND/OR OBSTRUCTIONS TO VISIBILITY.

BAJA CALIFORNIA

CITY           SKY/WX    TMP DP  RH WIND       PRES   REMARKS
LORETO         MOSUNNY   91  79  66 S7        29.75F HX 107
LA PAZ         MOSUNNY   97  63  32 SW12      29.82  HX  98
MEXICALI       SUNNY    111  46  11 S8        29.71  HX 107
S.J. DEL CABO  MOSUNNY   90  73  58 SE14      29.84F HX  98
TIJUANA        MOSUNNY   79  61  53 NE22      29.93R

NORTHWESTERN MEXICO

CITY           SKY/WX    TMP DP  RH WIND       PRES   REMARKS
CULIACAN       PTSUNNY   81  70  69 CALM      29.86
DURANGO        MOCLDY    84  34  16 E6        30.18S
GUAYMAS        MOSUNNY   95  79  59 S12       29.74  HX 112
HERMOSILLO     PTSUNNY  104  64  27 S16       29.82  HX 107
CD. JUAREZ     PTSUNNY   99  57  25 NE7       29.94  HX  97
LOS MOCHIS     PTSUNNY   90  73  58 S15       29.82R HX  98
OBREGON        MOSUNNY   99  68  36 SW9       29.76  HX 104

NORTHEASTERN MEXICO

CITY           SKY/WX    TMP DP  RH WIND       PRES   REMARKS
CHIHUAHUA      PTSUNNY   84  54  34 N6        30.08
MATAMOROS      MOCLDY    88  79  74 SE18G30   29.93  HX 102
MONTERREY      PTCLDY   100  50  18 E14       29.85S HX  97
NUEVO LAREDO   CLEAR    104  64  27 S9        29.82  HX 107
SALTILLO       MOCLDY    86  64  48 E17       30.14S
TORREON        PTCLDY    93  45  18 SE5       30.00S
CD. VICTORIA   CLEAR     91  61  35 S10G22    29.89  HX  91

WESTERN MEXICO

CITY           SKY/WX    TMP DP  RH WIND       PRES   REMARKS
AGUASCALIENTES MOCLDY    70  52  52 S9        30.23
COLIMA         PTCLDY    79  70  73 W7        30.01
DEL BAJIO      MOCLDY    73  61  64 W5        30.25R
GUADALAJARA    CLOUDY    77  59  53 W13       30.14
MANZANILLO     PTCLDY    86  77  74 S6        29.81R HX  97
MAZATLAN       CLEAR     86  73  66 SW8       29.82R HX  93
P. VALLARTA    CLOUDY    86  77  74 SW3       29.87F HX  97
ZACATECAS      MOCLDY    75  39  27 E12       30.28R

CENTRAL MEXICO

CITY           SKY/WX    TMP DP  RH WIND       PRES   REMARKS
MEXICO CITY    CLOUDY    64  50  59 NW14      30.31R
MORELIA        CLOUDY    68  59  73 SW9       30.22
POZA RICA      CLEAR     84  75  74 E7        29.96R HX  92
PUEBLA         MOCLDY    66  52  59 S8        30.33R
QUERETARO      MOCLDY    77  52  41 E17       30.23S
S. LUIS POTOSI PTCLDY    77  48  36 E14       30.21S
TAMPICO        PTCLDY    84  75  74 SE17      29.93S HX  92
TOLUCA         MOCLDY    54  50  87 NE9       30.42R THUNDER

SOUTHERN MEXICO

CITY           SKY/WX    TMP DP  RH WIND       PRES   REMARKS
ACAPULCO       MOCLDY    86  75  70 SW3       29.85S HX  95
OAXACA         CLOUDY    75  54  46 E5        30.19R
VERACRUZ       PTCLDY    84  73  70 E8        29.94R HX  91
ZIHUATANEJO    MOCLDY    84  73  70 CALM      29.87R HX  91

YUCATAN PENINSULA

CITY           SKY/WX    TMP DP  RH WIND       PRES   REMARKS
CAMPECHE       PTCLDY    86  77  74 N12G23    29.93R HX  97
CANCUN         PTCLDY    82  77  83 NE3       30.00R HX  91
CHETUMAL       MOCLDY    86  77  74 SE12      29.96R HX  97
CD. DEL CARMEN   N/A    N/A N/A N/A MISG        N/A
COZUMEL        PTCLDY    81  77  89 E5        30.00R
MERIDA         MOCLDY    84  70  61 N12       29.97S
MINATITLAN     CLEAR     84  73  70 N14       29.92  HX  91
TAPACHULA      MOCLDY    77  73  88 NE6       29.90R
TUX. GUTIERREZ PTCLDY    82  70  65 NW15      29.94R
VILLAHERMOSA   PTCLDY    88  73  62 NE10      29.92R HX  96

CENTRAL AMERICA

CITY           SKY/WX    TMP DP  RH WIND       PRES   REMARKS
MANAGUA        PTCLDY    88  70  55 E7        29.86  HX  92

CARIBBEAN

CITY           SKY/WX    TMP DP  RH WIND       PRES   REMARKS
CURACAO        PTCLDY    81  77  89 E15       29.92S
KINGSTON       MOCLDY    84  75  74 SE17      29.94S HX  92
NASSAU         MOCLDY    81  75  83 CALM      30.03R
SAN JUAN       PTCLDY    82  73  74 E3        30.02R
SANTO DOMINGO  PTCLDY    79  73  83 CALM      29.97S
ST. CROIX      CLEAR     81  72  74 N3        30.02R
ST. KITTS      PTCLDY    81  73  78 VRB2      30.03S
ST. MAARTEN    PTCLDY    82  75  78 E7        30.03S
ST. THOMAS     CLEAR     82  75  78 E8        30.01R

$$




USA.gov is the U.S. government's official web portal to all federal, state and local government web resources and services.